Location: Domachevo
(51.7500°N, 23.6000°E)
Time: 03:15:27
(UTC+03:00)

GENESIS II - Visible Passes

Search period start: 26 April 2017 00:00
Search period end: 06 May 2017 00:00
Orbit: 494 x 542 km, 64.5° (Epoch: 24 April)

Date Brightness Start Highest point End Pass type
(mag) Time Alt. Az. Time Alt. Az. Time Alt. Az.
26 Apr 7.1 00:33:58 10° WNW 00:36:55 19° NNW 00:39:52 10° NNE visible
26 Apr 7.6 02:14:00 10° NNW 02:16:06 14° N 02:18:11 10° NE visible
26 Apr 6.9 03:51:56 10° NNW 03:55:11 23° NNE 03:58:23 10° E visible
26 Apr 4.9 22:39:21 10° WSW 22:43:22 58° NW 22:47:23 10° NE visible
27 Apr 7.2 00:18:57 10° WNW 00:21:53 19° NNW 00:24:48 10° NNE visible
27 Apr 7.6 01:58:57 10° NNW 02:01:04 14° N 02:03:09 10° NE visible
27 Apr 6.9 03:36:52 10° NNW 03:40:08 23° NNE 03:43:21 10° E visible
27 Apr 4.2 05:14:21 10° NW 05:18:23 88° SW 05:22:20 10° SE visible
27 Apr 5.0 22:24:18 10° WSW 22:28:18 57° NW 22:32:19 10° NE visible
28 Apr 7.2 00:03:56 10° WNW 00:06:50 18° NNW 00:09:44 10° NNE visible
28 Apr 7.6 01:43:54 10° NNW 01:46:01 14° N 01:48:07 10° NE visible
28 Apr 6.8 03:21:47 10° NNW 03:25:05 23° NNE 03:28:19 10° E visible
28 Apr 4.2 04:59:17 10° NW 05:03:19 86° SW 05:07:15 10° SE visible
28 Apr 5.1 22:09:14 10° WSW 22:13:14 55° NW 22:17:15 10° NE visible
28 Apr 7.3 23:48:54 10° WNW 23:51:47 18° NNW 23:54:39 10° NNE visible
29 Apr 7.6 01:28:51 10° NNW 01:30:59 14° N 01:33:05 10° NE visible
29 Apr 6.8 03:06:42 10° NNW 03:10:02 24° NNE 03:13:18 10° E visible
29 Apr 4.2 04:44:13 10° NW 04:48:15 83° SW 04:52:10 10° SE visible
29 Apr 5.2 21:54:11 10° WSW 21:58:10 54° NW 22:02:10 10° NE visible
29 Apr 7.3 23:33:53 10° WNW 23:36:44 18° NNW 23:39:35 10° NNE visible
30 Apr 7.6 01:13:48 10° NNW 01:15:56 14° N 01:18:03 10° NE visible
30 Apr 6.7 02:51:38 10° NNW 02:54:58 24° NNE 02:58:16 10° E visible
30 Apr 4.1 04:29:09 10° NW 04:33:10 81° SW 04:37:05 10° SE visible
30 Apr 5.3 21:39:07 10° WSW 21:43:06 52° NW 21:47:05 10° NE visible
30 Apr 7.3 23:18:51 10° WNW 23:21:40 18° NNW 23:24:29 10° NNE visible
01 May 7.6 00:58:45 10° NNW 01:00:53 14° N 01:03:00 10° NE visible
01 May 6.7 02:36:33 10° NNW 02:39:55 25° NNE 02:43:13 10° E visible
01 May 4.1 04:14:04 10° NW 04:18:05 78° SW 04:22:00 10° SE visible
01 May 5.4 21:24:03 10° WSW 21:28:02 51° NW 21:32:00 10° NE visible
01 May 7.4 23:03:49 10° WNW 23:06:37 18° NNW 23:09:25 10° NNE visible
02 May 7.5 00:43:41 10° NNW 00:45:50 14° N 00:47:58 10° NE visible
02 May 6.6 02:21:28 10° NNW 02:24:51 25° NNE 02:28:10 10° E visible
02 May 4.1 03:58:59 10° NW 04:03:00 76° SW 04:06:55 10° SE visible
02 May 7.3 22:48:47 10° WNW 22:51:33 17° NNW 22:54:19 10° NNE visible
03 May 7.4 00:28:37 10° NNW 00:30:46 14° N 00:32:54 10° NE visible
03 May 6.5 02:06:23 10° NNW 02:09:47 25° NNE 02:13:08 10° E visible
03 May 4.1 03:43:55 10° NW 03:47:55 73° SW 03:51:49 10° SE visible
03 May 7.3 22:33:44 10° WNW 22:36:29 17° NNW 22:39:14 10° NNE visible
04 May 7.4 00:13:32 10° NNW 00:15:42 14° N 00:17:51 10° NE visible
04 May 6.5 01:51:17 10° NNW 01:54:42 26° NNE 01:58:04 10° E visible
04 May 4.1 03:28:49 10° NW 03:32:49 71° SW 03:36:43 10° SSE visible
04 May 6.2 05:09:12 10° WSW 05:09:46 10° WSW 05:10:20 10° WSW visible
04 May 7.2 22:18:42 10° WNW 22:21:25 17° NNW 22:24:08 10° NNE visible
04 May 7.3 23:58:28 10° NNW 00:00:38 14° N 00:02:48 10° NE visible
05 May 6.4 01:36:11 10° NNW 01:39:38 26° NNE 01:43:01 10° E visible
05 May 4.1 03:13:44 10° NW 03:17:43 68° SW 03:20:14 21° SSE visible
05 May 7.2 22:03:39 10° WNW 22:06:21 17° NNW 22:09:03 10° NNE visible
05 May 7.3 23:43:23 10° NNW 23:45:34 14° N 23:47:44 10° NE visible
